Weather History for Bloomington, IN

Change the Weather History Date:

Thursday, January 17, 2013

  Actual Average Record
Temperature  
Mean Temperature 34 °F 29 °F  
Max Temperature 43 °F 38 °F 58 °F (2012)
Min Temperature 24 °F 20 °F -4 °F (1997)
Degree Days  
Heating Degree Days 31 36  
Month to date heating degree days 562 612  
Since 1 July heating degree days 2576 2685  
Cooling Degree Days 0 0  
Month to date cooling degree days 0 0  
Year to date cooling degree days 0 0  
Moisture  
Dew Point 24 °F    
Average Humidity 68    
Maximum Humidity 85    
Minimum Humidity 50    
Precipitation  
Precipitation 0.00 in 0.12 in 1.23 in (2012)
Month to date precipitation 3.85 2.12  
Year to date precipitation 3.85 2.12  
Sea Level Pressure  
Sea Level Pressure 30.24 in    
Wind  
Wind Speed 6 mph (NNW)    
Max Wind Speed 18 mph    
Max Gust Speed 24 mph    
Visibility 10 miles    
Events      
T = Trace of Precipitation, MM = Missing Value Source: NWS Daily Summary

Daily Weather History Graph

Daily Weather History Graph

Search for Another Location

Airport:

Trip Planner

Search our weather history database for the weather conditions in past years. The results will help you decide how hot, cold, wet, or windy it might be!

Date:

Astronomy

Jan. 17, 2013 Rise Set
Actual Time 8:03 AM EST 5:50 PM EST
Civil Twilight 7:34 AM EST 6:19 PM EST
Nautical Twilight 7:01 AM EST 6:52 PM EST
Astronomical Twilight 6:29 AM EST 7:24 PM EST
Moon 11:13 AM EST (1/17) No Moon Set
Length of Visible Light 10h 45m
Length of Day
9h 47m
Waxing Crescent, 37% of the Moon is Illuminated
Jan 17
Waxing Crescent
Jan 18
First Quarter
Jan 26
Full
Feb 3
Last Quarter
Feb 10
New

Hourly Weather History & Observations

Time (EST) Temp. Windchill Dew Point Humidity Pressure Visibility Wind Dir Wind Speed Gust Speed Precip Events Conditions
12:53 AM 32.0 °F 26.4 °F 23.0 °F 69% 30.11 in 10.0 mi West 5.8 mph - N/A   Mostly Cloudy
1:53 AM 30.9 °F - 21.9 °F 69% 30.12 in 10.0 mi Calm Calm - N/A   Clear
2:53 AM 30.0 °F - 21.9 °F 72% 30.14 in 10.0 mi Calm Calm - N/A   Clear
3:53 AM 30.0 °F - 21.9 °F 72% 30.14 in 10.0 mi Calm Calm - N/A   Clear
4:53 AM 28.0 °F - 23.0 °F 81% 30.15 in 10.0 mi Calm Calm - N/A   Clear
5:53 AM 28.0 °F - 24.1 °F 85% 30.15 in 9.0 mi Calm Calm - N/A   Mostly Cloudy
6:53 AM 30.0 °F - 24.1 °F 79% 30.18 in 10.0 mi Calm Calm - N/A   Overcast
7:53 AM 30.9 °F - 25.0 °F 79% 30.19 in 9.0 mi Calm Calm - N/A   Overcast
8:53 AM 32.0 °F 24.2 °F 25.0 °F 75% 30.21 in 9.0 mi North 9.2 mph - N/A   Overcast
9:53 AM 36.0 °F 28.5 °F 28.0 °F 73% 30.24 in 9.0 mi North 10.4 mph - N/A   Overcast
10:53 AM 37.9 °F 32.1 °F 28.9 °F 70% 30.24 in 9.0 mi North 8.1 mph - N/A   Clear
11:53 AM 41.0 °F 34.7 °F 30.0 °F 65% 30.24 in 9.0 mi North 10.4 mph - N/A   Clear
12:53 PM 42.1 °F 35.2 °F 30.9 °F 65% 30.19 in 10.0 mi North 12.7 mph - N/A   Clear
1:53 PM 41.0 °F 35.2 °F 30.0 °F 65% 30.19 in 9.0 mi NNW 9.2 mph 19.6 mph N/A   Partly Cloudy
2:53 PM 41.0 °F 33.9 °F 27.0 °F 57% 30.19 in 10.0 mi NNW 12.7 mph 21.9 mph N/A   Clear
3:53 PM 41.0 °F 32.2 °F 25.0 °F 53% 30.21 in 10.0 mi North 18.4 mph 24.2 mph N/A   Clear
4:53 PM 39.0 °F 32.8 °F 23.0 °F 53% 30.24 in 10.0 mi NNW 9.2 mph 17.3 mph N/A   Clear
5:53 PM 34.0 °F 26.0 °F 21.9 °F 61% 30.28 in 10.0 mi North 10.4 mph - N/A   Clear
6:53 PM 34.0 °F 26.6 °F 21.0 °F 59% 30.33 in 10.0 mi North 9.2 mph - N/A   Clear
7:53 PM 32.0 °F 27.5 °F 19.9 °F 61% 30.35 in 10.0 mi Variable 4.6 mph - N/A   Clear
8:53 PM 30.0 °F 25.2 °F 19.0 °F 64% 30.39 in 10.0 mi NNW 4.6 mph - N/A   Clear
9:53 PM 28.0 °F - 18.0 °F 66% 30.41 in 10.0 mi Calm Calm - N/A   Clear
10:53 PM 27.0 °F - 18.0 °F 69% 30.42 in 10.0 mi Calm Calm - N/A   Clear
11:53 PM 27.0 °F - 18.0 °F 69% 30.43 in 10.0 mi Calm Calm - N/A   Clear